Location: Cactus School
(34.5700°N, 118.0931°W)
Time: 13:34:48
(UTC-07:00)

Vanguard 3 - All Passes

Search period start: 12 April 2024 00:00
Search period end: 22 April 2024 00:00
Orbit: 510 x 3236 km, 33.3° (Epoch: 11 April)

Date Brightness Start Highest point End Pass type
(mag) Time Alt. Az. Time Alt. Az. Time Alt. Az.
12 Apr - 03:56:37 10° S 04:02:34 14° SSE 04:07:19 10° ESE visible
12 Apr - 06:06:32 10° SW 06:15:41 35° SSE 06:21:16 10° E daylight
12 Apr - 08:20:29 10° WSW 08:27:33 68° S 08:31:55 10° E daylight
12 Apr - 10:34:06 10° W 10:38:41 68° S 10:42:21 10° ESE daylight
12 Apr - 12:46:29 10° WSW 12:49:21 21° SSW 12:52:26 10° SSE daylight
13 Apr - 04:47:55 10° SSW 04:57:39 27° SSE 05:04:04 10° ESE visible
13 Apr - 07:01:11 10° WSW 07:10:14 54° SSE 07:15:29 10° E daylight
13 Apr - 09:15:43 10° W 09:21:47 79° S 09:25:49 10° E daylight
13 Apr - 11:28:48 10° W 11:32:39 39° SSW 11:36:07 10° SE daylight
14 Apr - 03:30:16 10° S 03:39:08 19° SSE 03:45:43 10° ESE visible
14 Apr - 05:41:43 10° SW 05:52:31 42° SSE 05:58:51 10° E visible
14 Apr - 07:56:31 10° WSW 08:04:38 73° S 08:09:24 10° E daylight
14 Apr - 10:10:46 10° W 10:15:55 66° SSW 10:19:40 10° ESE daylight
14 Apr - 12:23:53 10° WSW 12:26:29 18° SSW 12:29:04 10° SSE daylight
15 Apr - 02:15:37 10° SSE 02:20:11 12° SSE 02:24:14 10° SE visible
15 Apr - 04:22:32 10° SSW 04:34:16 32° SSE 04:41:42 10° E visible
15 Apr - 06:36:44 10° WSW 06:47:08 61° SSE 06:52:58 10° E daylight
15 Apr - 08:51:58 10° W 08:58:56 80° S 09:03:15 10° E daylight
15 Apr - 11:05:42 10° W 11:09:50 36° SSW 11:13:15 10° SE daylight
16 Apr - 03:04:17 10° SSW 03:15:33 24° SSE 03:23:35 10° ESE visible
16 Apr - 05:16:46 10° SW 05:29:11 49° SSE 05:36:18 10° E visible
16 Apr - 07:32:20 10° WSW 07:41:37 78° S 07:46:52 10° E daylight
16 Apr - 09:47:15 10° W 09:53:05 63° SSW 09:57:01 10° ESE daylight
16 Apr - 12:01:11 10° WSW 12:03:32 15° SSW 12:05:45 10° S daylight
17 Apr - 01:48:05 10° S 01:56:25 15° SE 02:03:19 10° ESE visible
17 Apr - 03:57:09 10° SW 04:10:43 38° SSE 04:19:09 10° E visible
17 Apr - 06:12:07 10° WSW 06:23:54 67° SSE 06:30:23 10° E daylight
17 Apr - 08:28:02 10° W 08:35:59 80° S 08:40:41 10° E daylight
17 Apr - 10:42:23 10° W 10:46:57 34° SSW 10:50:26 10° SE daylight
18 Apr - 02:38:27 10° SSW 02:51:46 28° SSE 03:01:06 10° E visible
18 Apr - 04:51:44 10° SW 05:05:42 55° SSE 05:13:39 10° E visible
18 Apr - 07:07:59 10° W 07:18:29 81° S 07:24:16 10° E daylight
18 Apr - 09:23:31 10° W 09:30:10 61° SSW 09:34:23 10° ESE daylight
18 Apr - 11:38:20 10° WSW 11:40:30 14° SW 11:42:29 10° S daylight
19 Apr - 01:21:32 10° S 01:32:27 19° SE 01:41:18 10° ESE visible
19 Apr - 03:31:46 10° SW 03:46:58 43° SSE 03:56:26 10° E visible
19 Apr - 05:47:20 10° WSW 06:00:32 72° SSE 06:07:43 10° E visible
19 Apr - 08:03:54 10° W 08:12:57 80° S 08:18:06 10° E daylight
19 Apr - 10:18:54 10° W 10:23:58 32° SSW 10:27:37 10° SE daylight
20 Apr - 00:11:18 10° SE 00:12:57 10° SE 00:14:34 10° SE visible
20 Apr - 02:12:46 10° SSW 02:27:46 33° SSE 02:38:22 10° E visible
20 Apr - 04:26:37 10° SW 04:42:03 61° SSE 04:50:53 10° E visible
20 Apr - 06:43:27 10° W 06:55:14 83° S 07:01:37 10° E daylight
20 Apr - 08:59:34 10° W 09:07:09 60° SSW 09:11:43 10° ESE daylight
20 Apr - 11:15:18 10° WSW 11:17:25 13° SW 11:19:16 10° S daylight
21 Apr - 00:55:27 10° S 01:08:18 22° SE 01:18:45 10° E visible
21 Apr - 03:06:24 10° SW 03:23:02 49° SSE 03:33:33 10° E visible
21 Apr - 05:22:27 10° WSW 05:37:01 76° S 05:44:59 10° E visible
21 Apr - 07:39:33 10° W 07:49:48 79° S 07:55:27 10° ESE daylight
21 Apr - 09:55:12 10° W 10:00:55 32° SSW 10:04:49 10° SSE daylight
